Question-and-Answer Resource for the Building Energy Modeling Community
Get started with the Help page
Ask Your Question

Julien Marrec's profile - karma

Julien Marrec's karma change log

10 0 Definitive right way to model a WSHP loop ( 2018-09-18 17:05:18 -0500 )

10 0 linux ide (editor) for energyplus idf files ( 2018-09-18 14:10:17 -0500 )

15 0 linux ide (editor) for energyplus idf files ( 2018-09-18 08:35:05 -0500 )

10 0 linux ide (editor) for energyplus idf files ( 2018-09-18 07:58:37 -0500 )

10 0 linux ide (editor) for energyplus idf files ( 2018-09-18 05:37:37 -0500 )

10 0 how do I export Space name and SpaceType name into csv with an OpenStudio measure? ( 2018-09-17 09:24:20 -0500 )

10 0 Is eQuest finished? ( 2018-09-15 12:19:35 -0500 )

10 0 What is the (Current) State of the OpenStudio Radiance Measure? ( 2018-09-13 16:10:19 -0500 )

10 0 Weather file issues ( 2018-09-13 14:40:32 -0500 )

15 0 openstudio four pipe beam unit ( 2018-09-13 13:31:45 -0500 )

10 0 openstudio four pipe beam unit ( 2018-09-13 09:22:09 -0500 )

10 0 Weather file issues ( 2018-09-13 09:21:57 -0500 )

10 0 Weather file issues ( 2018-09-13 04:12:59 -0500 )

10 0 openstudio four pipe beam unit ( 2018-09-13 04:03:45 -0500 )

10 0 How to set spacetype.people by measure? ( 2018-09-10 10:07:20 -0500 )

10 0 Central Heat Pump System Working for Cooling But Not Heating ( 2018-09-10 09:06:16 -0500 )

10 0 How to set spacetype.people by measure? ( 2018-09-10 07:56:28 -0500 )

2 0 How do I run a simulation by using c#? ( 2018-09-10 03:39:12 -0500 )

15 0 What output variable will show a difference between a model with convex vs. non-convex surfaces ( 2018-09-06 10:41:00 -0500 )

10 0 What output variable will show a difference between a model with convex vs. non-convex surfaces ( 2018-09-06 10:27:43 -0500 )

10 0 What output variable will show a difference between a model with convex vs. non-convex surfaces ( 2018-09-06 07:33:02 -0500 )

10 0 What output variable will show a difference between a model with convex vs. non-convex surfaces ( 2018-09-06 06:52:47 -0500 )

10 0 What output variable will show a difference between a model with convex vs. non-convex surfaces ( 2018-09-06 02:45:18 -0500 )

10 0 What output variable will show a difference between a model with convex vs. non-convex surfaces ( 2018-09-05 08:12:49 -0500 )

10 0 changing window surface area/sqrft in Energy plus chicago office building IDF ( 2018-09-05 04:14:59 -0500 )

15 0 Adding osm objects from one model to another ( 2018-09-04 19:34:23 -0500 )

10 0 How to add Fan zone exhaust by measure? ( 2018-09-03 22:30:09 -0500 )

10 0 How to add Fan zone exhaust by measure? ( 2018-09-03 10:12:02 -0500 )

10 0 What is the difference between the Design Coil Load (Btu/hr) and the Nominal Total Capacity (Btu/hr) reported from EnergyPlus. ( 2018-08-31 04:47:43 -0500 )

15 0 Availability for two different systems: VRF and radiant floors ( 2018-08-29 11:31:18 -0500 )

10 0 Heat recovery Chiller - Central Heat Pump System ( 2018-08-28 07:39:06 -0500 )

15 0 EnergyPlus Runperiod setup ( 2018-08-26 07:57:45 -0500 )

10 0 EnergyPlus Runperiod setup ( 2018-08-24 02:53:30 -0500 )

0 -15 Adding osm objects from one model to another ( 2018-08-23 16:46:25 -0500 )

15 0 Adding osm objects from one model to another ( 2018-08-23 16:46:08 -0500 )

10 0 Adding osm objects from one model to another ( 2018-08-23 13:58:36 -0500 )

10 0 EnergyPlus Runperiod setup ( 2018-08-23 11:58:51 -0500 )

10 0 Adding osm objects from one model to another ( 2018-08-23 08:23:56 -0500 )

10 0 Energy storage dispatch ( 2018-08-22 13:00:35 -0500 )

10 0 Energy storage dispatch ( 2018-08-22 06:53:33 -0500 )

10 0 Heating ThermalStorage tank in E+ ( 2018-08-20 11:09:30 -0500 )

10 0 Does the E+ Weather Converter ship on mac? ( 2018-08-15 12:48:04 -0500 )

15 0 ZoneInfiltration:FlowCoefficient Open Studio ( 2018-08-08 07:45:04 -0500 )

10 0 When calibrating an energy model, what are the typical metrics to show proper calibration. ( 2018-08-06 09:08:44 -0500 )

10 0 What is the (Current) State of the OpenStudio Radiance Measure? ( 2018-08-01 15:00:16 -0500 )

10 0 where is the mathematical model of Dehumidifier:Desiccant:NoFans ( 2018-07-31 10:16:28 -0500 )

15 0 Best method to define individual space properties ( 2018-07-26 17:18:51 -0500 )

10 0 Best method to define individual space properties ( 2018-07-26 17:18:51 -0500 )

10 0 Chiller curve and AHRI test condition. ( 2018-07-26 00:34:42 -0500 )

10 0 Best method to define individual space properties ( 2018-07-25 12:34:17 -0500 )

10 0 Chiller curve and AHRI test condition. ( 2018-07-25 12:33:56 -0500 )

10 0 Availability for two different systems: VRF and radiant floors ( 2018-07-25 12:33:42 -0500 )

10 0 Availability for two different systems: VRF and radiant floors ( 2018-07-25 10:37:05 -0500 )

10 0 Best method to define individual space properties ( 2018-07-25 09:31:38 -0500 )

10 0 ZoneInfiltration:FlowCoefficient Open Studio ( 2018-07-24 11:43:39 -0500 )

10 0 ZoneInfiltration:FlowCoefficient Open Studio ( 2018-07-24 10:53:47 -0500 )

15 0 Can someone please provide me the steps for openstudio installation in Ubuntu 16.04 ? ( 2018-07-23 01:49:44 -0500 )

10 0 Can someone please provide me the steps for openstudio installation in Ubuntu 16.04 ? ( 2018-07-23 01:49:42 -0500 )

10 0 EnergyPlus ignores the design values on my AirloopHVAC ( 2018-07-21 03:44:07 -0500 )

10 0 Heat Recovery Chiller in OpenStudio ( 2018-07-20 12:23:46 -0500 )

10 0 Notepad++ for eQuest and EnergyPlus - Syntax highlighting, navigation pane and code folding ( 2018-07-20 11:59:52 -0500 )

10 0 Notepad++ for eQuest and EnergyPlus - Syntax highlighting, navigation pane and code folding ( 2018-07-20 11:59:50 -0500 )

10 0 Sketchup/eQuest polygon coordinate exchange ( 2018-07-20 08:34:10 -0500 )

10 0 Sketchup/eQuest polygon coordinate exchange ( 2018-07-20 08:13:44 -0500 )

15 0 Open Studio: unable to add the setpoint manager Humidity minimum to my airloop since that setpoint manager does not exist. ( 2018-07-20 01:04:19 -0500 )

10 0 Regular Expressions to filter Output:Variable ( 2018-07-17 10:17:40 -0500 )

10 0 Regular Expressions to filter Output:Variable ( 2018-07-17 09:17:35 -0500 )

10 0 Regular Expressions to filter Output:Variable ( 2018-07-16 16:56:05 -0500 )

10 0 E+ Unmet hours when delta temperature is below reporting tolerance? ( 2018-07-16 12:44:05 -0500 )

10 0 Calling ReadVarsESO without the 255 columns limit ( 2018-07-16 09:35:31 -0500 )

10 0 Calling ReadVarsESO without the 255 columns limit ( 2018-07-16 09:35:29 -0500 )

10 0 Regular Expressions to filter Output:Variable ( 2018-07-16 09:16:42 -0500 )

10 0 Regular Expressions to filter Output:Variable ( 2018-07-16 06:52:57 -0500 )

10 0 Suppose I have 100 variables calculated using Energyplus and I want to print the 100 in 10 CSV files, how may I achieve it ? ( 2018-07-16 06:52:20 -0500 )

10 0 Suppose I have 100 variables calculated using Energyplus and I want to print the 100 in 10 CSV files, how may I achieve it ? ( 2018-07-16 05:00:43 -0500 )

10 0 Suppose I have 100 variables calculated using Energyplus and I want to print the 100 in 10 CSV files, how may I achieve it ? ( 2018-07-16 03:00:57 -0500 )

10 0 Setpoint Manager OpenStudio ( 2018-07-06 12:12:20 -0500 )

10 0 Calling ReadVarsESO without the 255 columns limit ( 2018-07-04 07:24:38 -0500 )

10 0 DView with multiple SQL files: identify the right SQL file ( 2018-07-04 07:19:32 -0500 )

10 0 What is the (Current) State of the OpenStudio Radiance Measure? ( 2018-07-02 19:24:05 -0500 )

15 0 Adjacent heated zones in EP ( 2018-07-02 04:03:59 -0500 )

10 0 export .IDF from OpenStudio to Energy plus (EP-launch) ( 2018-06-28 08:55:24 -0500 )

10 0 export .IDF from OpenStudio to Energy plus (EP-launch) ( 2018-06-27 16:14:48 -0500 )

10 0 OS:Boiler:HotWater not working with cubic curves ( 2018-06-27 00:54:49 -0500 )

0 -10 OS:Boiler:HotWater not working with cubic curves ( 2018-06-27 00:54:48 -0500 )

10 0 OS:Boiler:HotWater not working with cubic curves ( 2018-06-27 00:25:17 -0500 )

10 0 Parametric Analysis Tool: material properties' change will remain? ( 2018-06-26 18:26:41 -0500 )

15 0 Parametric Analysis Tool: material properties' change will remain? ( 2018-06-26 18:26:39 -0500 )

10 0 OS:Boiler:HotWater not working with cubic curves ( 2018-06-26 12:33:56 -0500 )

15 0 OS:Boiler:HotWater not working with cubic curves ( 2018-06-26 08:55:25 -0500 )

10 0 OS:Boiler:HotWater not working with cubic curves ( 2018-06-26 08:55:23 -0500 )

10 0 Parametric Analysis Tool: material properties' change will remain? ( 2018-06-26 07:48:40 -0500 )

2 0 What is the (Current) State of the OpenStudio Radiance Measure? ( 2018-06-26 03:39:56 -0500 )

10 0 Revision control for text-based modeling programs ( 2018-06-26 03:12:46 -0500 )

10 0 What is the (Current) State of the OpenStudio Radiance Measure? ( 2018-06-26 00:25:22 -0500 )

10 0 What is the (Current) State of the OpenStudio Radiance Measure? ( 2018-06-25 22:28:22 -0500 )

10 0 What is the (Current) State of the OpenStudio Radiance Measure? ( 2018-06-25 17:09:39 -0500 )

10 0 What is the (Current) State of the OpenStudio Radiance Measure? ( 2018-06-25 16:29:29 -0500 )

10 0 What is the (Current) State of the OpenStudio Radiance Measure? ( 2018-06-25 14:48:28 -0500 )

10 0 Measure and idf run successfully in Openstudio, but not PAT ( 2018-06-23 14:01:35 -0500 )